Location: Joplin, MO
(37.0842°N, 94.5133°W)
Time: 22:03:35
(UTC+02:00)

Courier 1B Rocket - Pass Details

Date: 03 April 2023
Orbit: 920 x 1202 km, 28.2° (Epoch: 05 June)

Event Time Altitude Azimuth Distance (km) Brightness Sun altitude
Rises 23:27:24 0° 223° (SW) 4,084 9.1 37.2°
Reaches altitude 10° 23:30:49 10° 211° (SSW) 3,123 8.5 36.5°
Maximum altitude 23:36:54 25° 159° (SSE) 2,171 7.1 35.4°
Drops below altitude 10° 23:42:53 10° 107° (ESE) 3,058 7.3 34.3°
Sets 23:46:10 0° 95° (E) 3,983 7.7 33.7°
